Wetterdaten: Woche 21.12.15 - 27.12.15 (KW52)
Datum Zeit Temp. I. Temp. A. Feuchte I. Feuchte A. Luftdruck Regen Wind Richtung Sonnenschein UV Solar Taupunkt Windchill Windben
21.12.2015 00:00 23,1 C 3,4 C 49 % 98 % 1025,0 hPa 0,0 l/m 0,0 km/h (0 Bft) S 0,00 h 0,0 UV-I 0 W/m 3,1 C 3,4 C 0,2 km/h (0 Bft)
21.12.2015 01:00 23,0 C 3,3 C 49 % 98 % 1025,0 hPa 0,0 l/m 0,1 km/h (0 Bft) S 0,00 h 0,0 UV-I 0 W/m 3,0 C 3,3 C 0,3 km/h (0 Bft)
21.12.2015 02:00 22,9 C 3,2 C 49 % 98 % 1025,1 hPa 0,0 l/m 0,0 km/h (0 Bft) N 0,00 h 0,0 UV-I 0 W/m 2,9 C 3,2 C 0,0 km/h (0 Bft)
21.12.2015 03:00 22,8 C 3,2 C 50 % 98 % 1025,0 hPa 0,0 l/m 0,3 km/h (0 Bft) S 0,00 h 0,0 UV-I 0 W/m 2,9 C 3,2 C 0,8 km/h (0 Bft)
21.12.2015 04:00 22,9 C 3,0 C 50 % 98 % 1025,1 hPa 0,0 l/m 0,5 km/h (0 Bft) S 0,00 h 0,0 UV-I 0 W/m 2,8 C 3,0 C 1,4 km/h (1 Bft)
21.12.2015 05:00 22,8 C 2,9 C 50 % 98 % 1025,1 hPa 0,0 l/m 0,3 km/h (0 Bft) S 0,00 h 0,0 UV-I 0 W/m 2,6 C 2,9 C 1,3 km/h (1 Bft)
21.12.2015 06:00 22,8 C 2,8 C 50 % 98 % 1025,3 hPa 0,0 l/m 0,3 km/h (0 Bft) S 0,00 h 0,0 UV-I 0 W/m 2,5 C 2,8 C 1,3 km/h (1 Bft)
21.12.2015 07:00 22,8 C 2,9 C 51 % 98 % 1025,4 hPa 0,0 l/m 1,4 km/h (1 Bft) SW 0,00 h 0,0 UV-I 0 W/m 2,7 C 2,9 C 4,1 km/h (1 Bft)
21.12.2015 08:00 23,0 C 3,2 C 51 % 98 % 1025,6 hPa 0,0 l/m 0,4 km/h (0 Bft) S 0,00 h 0,0 UV-I 8 W/m 2,9 C 3,2 C 1,9 km/h (1 Bft)
21.12.2015 09:00 23,3 C 3,4 C 51 % 98 % 1025,8 hPa 0,2 l/m 0,5 km/h (0 Bft) SW 0,00 h 0,0 UV-I 8 W/m 3,1 C 3,4 C 1,7 km/h (1 Bft)
21.12.2015 10:00 23,3 C 3,7 C 50 % 98 % 1026,6 hPa 0,4 l/m 0,7 km/h (0 Bft) W-SW 0,00 h 0,0 UV-I 16 W/m 3,4 C 3,7 C 2,1 km/h (1 Bft)
21.12.2015 11:00 23,3 C 4,2 C 50 % 98 % 1026,8 hPa 0,2 l/m 2,1 km/h (1 Bft) S 0,00 h 0,0 UV-I 44 W/m 3,9 C 4,2 C 5,5 km/h (1 Bft)
21.12.2015 12:00 23,4 C 5,0 C 49 % 98 % 1026,1 hPa 0,0 l/m 3,2 km/h (1 Bft) S 0,00 h 0,0 UV-I 54 W/m 4,7 C 4,9 C 8,1 km/h (2 Bft)
21.12.2015 13:00 23,4 C 5,8 C 48 % 98 % 1025,8 hPa 0,0 l/m 4,4 km/h (1 Bft) SW 0,00 h 0,0 UV-I 38 W/m 5,5 C 5,5 C 11,0 km/h (2 Bft)
21.12.2015 14:00 23,5 C 6,2 C 48 % 98 % 1025,9 hPa 0,0 l/m 4,2 km/h (1 Bft) S 0,00 h 0,0 UV-I 14 W/m 6,0 C 6,1 C 9,4 km/h (2 Bft)
21.12.2015 15:00 23,4 C 6,4 C 48 % 97 % 1026,0 hPa 0,0 l/m 4,3 km/h (1 Bft) SW 0,00 h 0,0 UV-I 22 W/m 6,0 C 6,2 C 9,6 km/h (2 Bft)
21.12.2015 16:00 23,1 C 6,3 C 47 % 96 % 1026,1 hPa 0,0 l/m 4,8 km/h (1 Bft) SW 0,00 h 0,0 UV-I 0 W/m 5,8 C 6,0 C 10,1 km/h (2 Bft)
21.12.2015 17:00 23,3 C 6,3 C 47 % 96 % 1026,3 hPa 0,0 l/m 5,5 km/h (1 Bft) S 0,00 h 0,0 UV-I 0 W/m 5,7 C 5,8 C 10,9 km/h (2 Bft)
21.12.2015 18:00 23,5 C 6,2 C 49 % 96 % 1026,3 hPa 0,0 l/m 9,8 km/h (2 Bft) S 0,00 h 0,0 UV-I 0 W/m 5,6 C 3,6 C 17,0 km/h (3 Bft)
21.12.2015 19:00 23,5 C 6,0 C 50 % 95 % 1026,5 hPa 0,0 l/m 10,4 km/h (2 Bft) S 0,00 h 0,0 UV-I 0 W/m 5,3 C 3,1 C 17,2 km/h (3 Bft)
21.12.2015 20:00 23,5 C 5,9 C 50 % 95 % 1026,7 hPa 0,0 l/m 5,7 km/h (1 Bft) S-SW 0,00 h 0,0 UV-I 0 W/m 5,2 C 5,0 C 11,2 km/h (2 Bft)
21.12.2015 21:00 23,4 C 5,6 C 49 % 95 % 1026,9 hPa 0,0 l/m 6,3 km/h (2 Bft) S 0,00 h 0,0 UV-I 0 W/m 4,8 C 4,3 C 10,5 km/h (2 Bft)
21.12.2015 22:00 23,4 C 5,8 C 48 % 94 % 1026,7 hPa 0,0 l/m 8,4 km/h (2 Bft) S 0,00 h 0,0 UV-I 0 W/m 4,9 C 3,9 C 13,9 km/h (3 Bft)
21.12.2015 23:00 23,1 C 5,9 C 48 % 92 % 1026,6 hPa 0,0 l/m 8,8 km/h (2 Bft) S 0,00 h 0,0 UV-I 0 W/m 4,8 C 3,9 C 14,5 km/h (3 Bft)
22.12.2015 00:00 22,9 C 6,3 C 49 % 91 % 1026,8 hPa 0,0 l/m 11,0 km/h (2 Bft) SW 0,00 h 0,0 UV-I 0 W/m 5,0 C 3,0 C 18,3 km/h (3 Bft)
22.12.2015 01:00 22,8 C 6,3 C 49 % 93 % 1027,6 hPa 0,0 l/m 8,3 km/h (2 Bft) W-SW 0,00 h 0,0 UV-I 0 W/m 5,2 C 4,5 C 14,2 km/h (3 Bft)
22.12.2015 02:00 22,8 C 6,3 C 49 % 95 % 1027,8 hPa 0,0 l/m 8,0 km/h (2 Bft) SW 0,00 h 0,0 UV-I 0 W/m 5,5 C 4,7 C 15,0 km/h (3 Bft)
22.12.2015 03:00 22,7 C 6,6 C 50 % 94 % 1027,8 hPa 0,0 l/m 9,1 km/h (2 Bft) SW 0,00 h 0,0 UV-I 0 W/m 5,7 C 4,4 C 15,7 km/h (3 Bft)
22.12.2015 04:00 22,7 C 6,8 C 50 % 94 % 1027,9 hPa 0,0 l/m 5,9 km/h (2 Bft) SW 0,00 h 0,0 UV-I 0 W/m 5,8 C 5,7 C 11,0 km/h (2 Bft)
22.12.2015 05:00 22,7 C 7,0 C 50 % 94 % 1027,8 hPa 0,0 l/m 7,9 km/h (2 Bft) SW 0,00 h 0,0 UV-I 0 W/m 6,1 C 5,3 C 14,8 km/h (3 Bft)
22.12.2015 06:00 22,7 C 7,2 C 50 % 93 % 1027,9 hPa 0,0 l/m 10,5 km/h (2 Bft) SW 0,00 h 0,0 UV-I 0 W/m 6,2 C 4,4 C 17,6 km/h (3 Bft)
22.12.2015 07:00 22,8 C 7,5 C 50 % 92 % 1028,3 hPa 0,2 l/m 11,0 km/h (2 Bft) SW 0,00 h 0,0 UV-I 0 W/m 6,3 C 4,3 C 18,8 km/h (3 Bft)
22.12.2015 08:00 22,9 C 7,4 C 49 % 93 % 1028,9 hPa 0,0 l/m 8,1 km/h (2 Bft) W-SW 0,00 h 0,0 UV-I 14 W/m 6,4 C 5,8 C 14,5 km/h (3 Bft)
22.12.2015 09:00 22,9 C 7,3 C 50 % 94 % 1029,1 hPa 0,0 l/m 4,5 km/h (1 Bft) S-SW 0,00 h 0,0 UV-I 36 W/m 6,4 C 6,9 C 9,3 km/h (2 Bft)
22.12.2015 10:00 23,2 C 7,3 C 51 % 94 % 1029,3 hPa 0,0 l/m 2,5 km/h (1 Bft) S 0,00 h 0,0 UV-I 24 W/m 6,4 C 7,2 C 6,2 km/h (2 Bft)
22.12.2015 11:00 23,3 C 7,6 C 49 % 94 % 1028,9 hPa 0,0 l/m 3,7 km/h (1 Bft) S 0,00 h 0,0 UV-I 35 W/m 6,6 C 7,4 C 9,5 km/h (2 Bft)
22.12.2015 12:00 23,3 C 8,2 C 49 % 92 % 1028,3 hPa 0,0 l/m 5,1 km/h (1 Bft) SW 0,00 h 0,6 UV-I 87 W/m 6,9 C 7,6 C 11,2 km/h (2 Bft)
22.12.2015 13:00 23,1 C 8,9 C 48 % 89 % 1027,2 hPa 0,0 l/m 11,7 km/h (2 Bft) SW 0,00 h 0,5 UV-I 83 W/m 7,1 C 5,5 C 19,2 km/h (3 Bft)
22.12.2015 14:00 23,3 C 9,4 C 48 % 87 % 1026,9 hPa 0,0 l/m 10,4 km/h (2 Bft) SW 0,00 h 0,5 UV-I 69 W/m 7,4 C 6,8 C 16,3 km/h (3 Bft)
22.12.2015 15:00 23,2 C 9,9 C 47 % 85 % 1026,8 hPa 0,0 l/m 7,9 km/h (2 Bft) SW 0,00 h 0,0 UV-I 41 W/m 7,4 C 8,5 C 13,9 km/h (3 Bft)
22.12.2015 16:00 23,0 C 9,4 C 47 % 84 % 1026,7 hPa 0,0 l/m 3,0 km/h (1 Bft) SW 0,00 h 0,0 UV-I 6 W/m 6,8 C 9,1 C 7,2 km/h (2 Bft)
22.12.2015 17:00 22,8 C 8,8 C 47 % 84 % 1027,0 hPa 0,0 l/m 1,2 km/h (1 Bft) S-SW 0,00 h 0,0 UV-I 0 W/m 6,3 C 8,8 C 3,7 km/h (1 Bft)
22.12.2015 18:00 22,8 C 8,3 C 47 % 87 % 1026,9 hPa 0,0 l/m 1,2 km/h (1 Bft) S 0,00 h 0,0 UV-I 0 W/m 6,3 C 8,3 C 3,6 km/h (1 Bft)
22.12.2015 19:00 23,0 C 8,1 C 49 % 87 % 1027,0 hPa 0,0 l/m 4,1 km/h (1 Bft) S 0,00 h 0,0 UV-I 0 W/m 6,0 C 7,9 C 8,4 km/h (2 Bft)
22.12.2015 20:00 23,1 C 8,4 C 48 % 83 % 1026,8 hPa 0,0 l/m 3,9 km/h (1 Bft) S-SW 0,00 h 0,0 UV-I 0 W/m 5,7 C 8,3 C 8,8 km/h (2 Bft)
22.12.2015 21:00 23,2 C 9,2 C 48 % 78 % 1026,6 hPa 0,0 l/m 6,5 km/h (2 Bft) S 0,00 h 0,0 UV-I 0 W/m 5,4 C 8,4 C 12,5 km/h (3 Bft)
22.12.2015 22:00 23,0 C 8,8 C 47 % 80 % 1026,3 hPa 0,0 l/m 3,5 km/h (1 Bft) S 0,00 h 0,0 UV-I 0 W/m 5,5 C 8,7 C 8,3 km/h (2 Bft)
22.12.2015 23:00 23,1 C 8,4 C 47 % 80 % 1026,2 hPa 0,0 l/m 1,9 km/h (1 Bft) S 0,00 h 0,0 UV-I 0 W/m 5,1 C 8,4 C 4,8 km/h (1 Bft)
23.12.2015 00:00 22,9 C 7,8 C 47 % 81 % 1025,8 hPa 0,0 l/m 0,5 km/h (0 Bft) S 0,00 h 0,0 UV-I 0 W/m 4,8 C 7,8 C 2,1 km/h (1 Bft)
23.12.2015 01:00 22,9 C 7,0 C 47 % 84 % 1025,5 hPa 0,0 l/m 0,6 km/h (0 Bft) S 0,00 h 0,0 UV-I 0 W/m 4,4 C 7,0 C 2,5 km/h (1 Bft)
23.12.2015 02:00 22,8 C 6,1 C 47 % 87 % 1025,2 hPa 0,0 l/m 1,2 km/h (1 Bft) S 0,00 h 0,0 UV-I 0 W/m 4,1 C 6,1 C 4,2 km/h (1 Bft)
23.12.2015 03:00 22,7 C 5,9 C 47 % 88 % 1025,2 hPa 0,0 l/m 1,7 km/h (1 Bft) SW 0,00 h 0,0 UV-I 0 W/m 4,0 C 5,9 C 4,9 km/h (1 Bft)
23.12.2015 04:00 22,6 C 6,1 C 48 % 86 % 1025,3 hPa 0,0 l/m 2,5 km/h (1 Bft) S 0,00 h 0,0 UV-I 0 W/m 4,0 C 6,1 C 6,4 km/h (2 Bft)
23.12.2015 05:00 22,6 C 5,7 C 48 % 87 % 1025,4 hPa 0,0 l/m 1,8 km/h (1 Bft) S-SW 0,00 h 0,0 UV-I 0 W/m 3,7 C 5,7 C 5,4 km/h (1 Bft)
23.12.2015 06:00 22,6 C 5,2 C 48 % 89 % 1026,0 hPa 0,0 l/m 1,2 km/h (1 Bft) SW 0,00 h 0,0 UV-I 0 W/m 3,6 C 5,2 C 3,3 km/h (1 Bft)
23.12.2015 07:00 22,6 C 4,6 C 49 % 89 % 1026,5 hPa 0,0 l/m 0,0 km/h (0 Bft) W-SW 0,00 h 0,0 UV-I 0 W/m 3,0 C 4,6 C 0,2 km/h (0 Bft)
23.12.2015 08:00 22,9 C 4,4 C 49 % 92 % 1027,3 hPa 0,0 l/m 0,2 km/h (0 Bft) S-SW 0,00 h 0,0 UV-I 22 W/m 3,2 C 4,4 C 0,5 km/h (0 Bft)
23.12.2015 09:00 23,0 C 5,9 C 48 % 89 % 1027,7 hPa 0,0 l/m 2,6 km/h (1 Bft) S 0,00 h 0,0 UV-I 63 W/m 4,2 C 5,7 C 5,8 km/h (1 Bft)
23.12.2015 10:00 22,9 C 6,7 C 47 % 86 % 1027,9 hPa 0,0 l/m 6,3 km/h (2 Bft) S 0,00 h 0,5 UV-I 62 W/m 4,5 C 5,9 C 10,9 km/h (2 Bft)
23.12.2015 11:00 23,0 C 7,1 C 47 % 85 % 1027,8 hPa 0,0 l/m 5,4 km/h (1 Bft) S 0,00 h 0,5 UV-I 64 W/m 4,8 C 6,8 C 9,5 km/h (2 Bft)
23.12.2015 12:00 23,0 C 7,4 C 47 % 84 % 1027,9 hPa 0,0 l/m 2,7 km/h (1 Bft) S 0,00 h 0,5 UV-I 50 W/m 5,0 C 7,4 C 6,1 km/h (2 Bft)
23.12.2015 13:00 23,0 C 7,5 C 47 % 85 % 1027,8 hPa 0,0 l/m 1,7 km/h (1 Bft) S 0,00 h 0,0 UV-I 31 W/m 5,2 C 7,5 C 3,5 km/h (1 Bft)
23.12.2015 14:00 23,2 C 7,7 C 47 % 86 % 1027,9 hPa 0,0 l/m 1,5 km/h (1 Bft) SW 0,00 h 0,0 UV-I 20 W/m 5,6 C 7,7 C 4,5 km/h (1 Bft)
23.12.2015 15:00 23,2 C 7,8 C 48 % 88 % 1028,2 hPa 0,0 l/m 2,5 km/h (1 Bft) SW 0,00 h 0,0 UV-I 7 W/m 6,0 C 7,8 C 6,2 km/h (2 Bft)
23.12.2015 16:00 23,4 C 8,0 C 49 % 89 % 1028,9 hPa 0,0 l/m 2,5 km/h (1 Bft) SW 0,00 h 0,0 UV-I 0 W/m 6,4 C 8,0 C 7,0 km/h (2 Bft)
23.12.2015 17:00 23,7 C 8,1 C 49 % 92 % 1029,6 hPa 0,0 l/m 3,0 km/h (1 Bft) SW 0,00 h 0,0 UV-I 0 W/m 6,8 C 8,1 C 6,4 km/h (2 Bft)
23.12.2015 18:00 23,8 C 7,7 C 49 % 95 % 1030,3 hPa 0,0 l/m 0,9 km/h (0 Bft) W-SW 0,00 h 0,0 UV-I 0 W/m 7,0 C 7,8 C 2,0 km/h (1 Bft)
23.12.2015 19:00 23,7 C 7,4 C 48 % 95 % 1030,5 hPa 0,0 l/m 0,1 km/h (0 Bft) SW 0,00 h 0,0 UV-I 0 W/m 6,6 C 7,4 C 0,2 km/h (0 Bft)
23.12.2015 20:00 23,3 C 6,7 C 50 % 95 % 1030,6 hPa 0,0 l/m 0,4 km/h (0 Bft) SO 0,00 h 0,0 UV-I 0 W/m 5,9 C 6,7 C 1,1 km/h (0 Bft)
23.12.2015 21:00 23,5 C 6,1 C 54 % 96 % 1030,7 hPa 0,0 l/m 0,1 km/h (0 Bft) S-SO 0,00 h 0,0 UV-I 0 W/m 5,6 C 6,1 C 0,3 km/h (0 Bft)
23.12.2015 22:00 23,5 C 5,6 C 55 % 96 % 1030,4 hPa 0,0 l/m 0,1 km/h (0 Bft) SO 0,00 h 0,0 UV-I 0 W/m 5,0 C 5,6 C 0,3 km/h (0 Bft)
23.12.2015 23:00 23,5 C 5,3 C 55 % 97 % 1030,6 hPa 0,0 l/m 0,1 km/h (0 Bft) O 0,00 h 0,0 UV-I 0 W/m 4,9 C 5,3 C 0,3 km/h (0 Bft)
24.12.2015 00:00 23,5 C 5,8 C 54 % 97 % 1030,5 hPa 0,0 l/m 0,0 km/h (0 Bft) N 0,00 h 0,0 UV-I 0 W/m 5,4 C 5,8 C 0,0 km/h (0 Bft)
24.12.2015 01:00 23,3 C 5,7 C 55 % 97 % 1030,1 hPa 0,0 l/m 0,0 km/h (0 Bft) N 0,00 h 0,0 UV-I 0 W/m 5,3 C 5,7 C 0,0 km/h (0 Bft)
24.12.2015 02:00 23,3 C 5,5 C 56 % 97 % 1030,0 hPa 0,0 l/m 0,0 km/h (0 Bft) N 0,00 h 0,0 UV-I 0 W/m 5,0 C 5,5 C 0,0 km/h (0 Bft)
24.12.2015 03:00 23,4 C 5,6 C 56 % 98 % 1029,7 hPa 0,0 l/m 0,0 km/h (0 Bft) N 0,00 h 0,0 UV-I 0 W/m 5,3 C 5,6 C 0,0 km/h (0 Bft)
24.12.2015 04:00 23,5 C 5,4 C 56 % 98 % 1029,3 hPa 0,0 l/m 0,0 km/h (0 Bft) N 0,00 h 0,0 UV-I 0 W/m 5,1 C 5,4 C 0,0 km/h (0 Bft)
24.12.2015 05:00 23,4 C 5,2 C 56 % 98 % 1028,7 hPa 0,0 l/m 0,1 km/h (0 Bft) O-NO 0,00 h 0,0 UV-I 0 W/m 4,9 C 5,2 C 0,3 km/h (0 Bft)
24.12.2015 06:00 23,4 C 5,2 C 56 % 98 % 1028,3 hPa 0,0 l/m 0,1 km/h (0 Bft) O-NO 0,00 h 0,0 UV-I 0 W/m 4,9 C 5,2 C 0,2 km/h (0 Bft)
24.12.2015 07:00 23,5 C 5,1 C 56 % 98 % 1028,2 hPa 0,0 l/m 0,0 km/h (0 Bft) N 0,00 h 0,0 UV-I 0 W/m 4,9 C 5,1 C 0,0 km/h (0 Bft)
24.12.2015 08:00 23,3 C 5,1 C 56 % 98 % 1028,3 hPa 0,0 l/m 0,0 km/h (0 Bft) N 0,00 h 0,0 UV-I 13 W/m 4,8 C 5,1 C 0,0 km/h (0 Bft)
24.12.2015 09:00 23,4 C 5,5 C 55 % 98 % 1028,4 hPa 0,0 l/m 0,0 km/h (0 Bft) N 0,00 h 0,0 UV-I 38 W/m 5,2 C 5,5 C 0,0 km/h (0 Bft)
24.12.2015 10:00 23,4 C 6,4 C 55 % 98 % 1028,4 hPa 0,0 l/m 0,0 km/h (0 Bft) N 0,00 h 0,5 UV-I 77 W/m 6,1 C 6,4 C 0,0 km/h (0 Bft)
24.12.2015 11:00 23,3 C 8,5 C 54 % 95 % 1027,8 hPa 0,0 l/m 1,6 km/h (1 Bft) S 0,53 h 0,7 UV-I 172 W/m 7,7 C 8,4 C 3,0 km/h (1 Bft)
24.12.2015 12:00 23,3 C 9,3 C 52 % 90 % 1027,0 hPa 0,0 l/m 1,9 km/h (1 Bft) S 0,00 h 0,6 UV-I 97 W/m 7,8 C 9,3 C 4,9 km/h (1 Bft)
24.12.2015 13:00 23,4 C 10,2 C 52 % 86 % 1026,3 hPa 0,0 l/m 1,9 km/h (1 Bft) S 0,60 h 0,6 UV-I 158 W/m 7,9 C 10,2 C 4,7 km/h (1 Bft)
24.12.2015 14:00 23,4 C 10,8 C 51 % 82 % 1025,6 hPa 0,0 l/m 2,1 km/h (1 Bft) S 0,13 h 0,5 UV-I 120 W/m 7,9 C 10,8 C 5,2 km/h (1 Bft)
24.12.2015 15:00 23,5 C 10,1 C 51 % 84 % 1025,6 hPa 0,0 l/m 3,1 km/h (1 Bft) S 0,00 h 0,0 UV-I 23 W/m 7,5 C 10,1 C 6,7 km/h (2 Bft)
24.12.2015 16:00 23,5 C 9,1 C 50 % 86 % 1025,4 hPa 0,0 l/m 1,4 km/h (1 Bft) S 0,00 h 0,0 UV-I 8 W/m 6,9 C 9,1 C 3,9 km/h (1 Bft)
24.12.2015 17:00 23,6 C 8,5 C 51 % 87 % 1025,7 hPa 0,0 l/m 0,5 km/h (0 Bft) S-SO 0,00 h 0,0 UV-I 0 W/m 6,5 C 8,5 C 1,3 km/h (1 Bft)
24.12.2015 18:00 23,4 C 7,6 C 51 % 88 % 1025,8 hPa 0,0 l/m 0,0 km/h (0 Bft) N 0,00 h 0,0 UV-I 0 W/m 5,7 C 7,6 C 0,0 km/h (0 Bft)
24.12.2015 19:00 23,2 C 6,6 C 52 % 90 % 1026,1 hPa 0,0 l/m 0,4 km/h (0 Bft) SO 0,00 h 0,0 UV-I 0 W/m 5,0 C 6,6 C 0,9 km/h (0 Bft)
24.12.2015 20:00 23,1 C 6,4 C 52 % 90 % 1026,2 hPa 0,0 l/m 0,3 km/h (0 Bft) SO 0,00 h 0,0 UV-I 0 W/m 4,9 C 6,4 C 0,7 km/h (0 Bft)
24.12.2015 21:00 23,0 C 5,9 C 51 % 90 % 1026,6 hPa 0,0 l/m 0,0 km/h (0 Bft) N 0,00 h 0,0 UV-I 0 W/m 4,4 C 5,9 C 0,1 km/h (0 Bft)
24.12.2015 22:00 23,2 C 5,1 C 50 % 92 % 1027,0 hPa 0,0 l/m 0,0 km/h (0 Bft) N 0,00 h 0,0 UV-I 0 W/m 3,8 C 5,1 C 0,0 km/h (0 Bft)
24.12.2015 23:00 23,3 C 5,0 C 50 % 93 % 1027,0 hPa 0,0 l/m 0,5 km/h (0 Bft) SW 0,00 h 0,0 UV-I 0 W/m 4,0 C 5,0 C 1,9 km/h (1 Bft)
25.12.2015 00:00 23,0 C 5,4 C 51 % 93 % 1027,2 hPa 0,0 l/m 0,8 km/h (0 Bft) SW 0,00 h 0,0 UV-I 0 W/m 4,4 C 5,4 C 3,9 km/h (1 Bft)
25.12.2015 01:00 22,8 C 5,8 C 51 % 93 % 1027,4 hPa 0,0 l/m 0,3 km/h (0 Bft) SW 0,00 h 0,0 UV-I 0 W/m 4,8 C 5,8 C 1,7 km/h (1 Bft)
25.12.2015 02:00 22,8 C 6,5 C 52 % 91 % 1027,8 hPa 0,0 l/m 0,4 km/h (0 Bft) SW 0,00 h 0,0 UV-I 0 W/m 5,1 C 6,5 C 2,3 km/h (1 Bft)
25.12.2015 03:00 22,7 C 6,9 C 52 % 89 % 1028,1 hPa 0,0 l/m 0,2 km/h (0 Bft) S 0,00 h 0,0 UV-I 0 W/m 5,2 C 6,9 C 1,3 km/h (1 Bft)
25.12.2015 04:00 22,7 C 7,5 C 52 % 87 % 1028,0 hPa 0,0 l/m 3,3 km/h (1 Bft) S-SW 0,00 h 0,0 UV-I 0 W/m 5,5 C 7,3 C 8,0 km/h (2 Bft)
25.12.2015 05:00 22,6 C 7,9 C 52 % 86 % 1028,4 hPa 0,0 l/m 4,2 km/h (1 Bft) SW 0,00 h 0,0 UV-I 0 W/m 5,7 C 7,7 C 9,6 km/h (2 Bft)
25.12.2015 06:00 22,7 C 8,1 C 53 % 86 % 1028,8 hPa 0,0 l/m 3,3 km/h (1 Bft) SW 0,00 h 0,0 UV-I 0 W/m 5,9 C 8,1 C 8,4 km/h (2 Bft)
25.12.2015 07:00 22,6 C 8,2 C 53 % 86 % 1029,3 hPa 0,0 l/m 3,0 km/h (1 Bft) SW 0,00 h 0,0 UV-I 0 W/m 6,0 C 8,2 C 7,9 km/h (2 Bft)
25.12.2015 08:00 22,6 C 8,2 C 53 % 87 % 1030,0 hPa 0,0 l/m 3,4 km/h (1 Bft) SW 0,00 h 0,0 UV-I 6 W/m 6,2 C 8,1 C 8,2 km/h (2 Bft)
25.12.2015 09:00 22,6 C 8,1 C 53 % 88 % 1030,3 hPa 0,0 l/m 4,3 km/h (1 Bft) SW 0,00 h 0,0 UV-I 34 W/m 6,3 C 8,0 C 9,6 km/h (2 Bft)
25.12.2015 10:00 22,7 C 8,3 C 52 % 88 % 1030,6 hPa 0,0 l/m 2,9 km/h (1 Bft) SW 0,00 h 0,5 UV-I 55 W/m 6,5 C 8,2 C 7,4 km/h (2 Bft)
25.12.2015 11:00 23,0 C 8,2 C 52 % 92 % 1030,5 hPa 0,0 l/m 1,7 km/h (1 Bft) SW 0,00 h 0,5 UV-I 57 W/m 6,9 C 8,2 C 5,3 km/h (1 Bft)
25.12.2015 12:00 23,2 C 8,8 C 51 % 90 % 1030,2 hPa 0,0 l/m 1,4 km/h (1 Bft) W-SW 0,07 h 0,5 UV-I 101 W/m 7,2 C 8,8 C 4,5 km/h (1 Bft)
25.12.2015 13:00 23,3 C 10,2 C 50 % 84 % 1030,0 hPa 0,0 l/m 2,8 km/h (1 Bft) S 0,50 h 0,6 UV-I 152 W/m 7,7 C 10,0 C 6,4 km/h (2 Bft)
25.12.2015 14:00 23,4 C 10,3 C 50 % 84 % 1029,6 hPa 0,0 l/m 3,0 km/h (1 Bft) S 0,00 h 0,5 UV-I 77 W/m 7,7 C 10,2 C 7,3 km/h (2 Bft)
25.12.2015 15:00 23,6 C 10,1 C 50 % 85 % 1029,6 hPa 0,0 l/m 3,7 km/h (1 Bft) S-SW 0,00 h 0,0 UV-I 26 W/m 7,6 C 10,0 C 8,7 km/h (2 Bft)
25.12.2015 16:00 23,5 C 9,6 C 51 % 86 % 1030,0 hPa 0,0 l/m 3,7 km/h (1 Bft) S-SW 0,00 h 0,0 UV-I 5 W/m 7,3 C 9,5 C 8,5 km/h (2 Bft)
25.12.2015 17:00 23,6 C 9,3 C 54 % 86 % 1030,2 hPa 0,0 l/m 2,5 km/h (1 Bft) S 0,00 h 0,0 UV-I 0 W/m 7,1 C 9,2 C 6,9 km/h (2 Bft)
25.12.2015 18:00 23,6 C 8,8 C 53 % 88 % 1030,2 hPa 0,0 l/m 0,3 km/h (0 Bft) S 0,00 h 0,0 UV-I 0 W/m 6,9 C 8,8 C 0,7 km/h (0 Bft)
25.12.2015 19:00 23,8 C 8,4 C 53 % 89 % 1030,3 hPa 0,0 l/m 0,0 km/h (0 Bft) N 0,00 h 0,0 UV-I 0 W/m 6,7 C 8,4 C 0,1 km/h (0 Bft)
25.12.2015 20:00 23,9 C 8,6 C 53 % 89 % 1030,4 hPa 0,0 l/m 1,2 km/h (1 Bft) SW 0,00 h 0,0 UV-I 0 W/m 6,8 C 8,5 C 3,2 km/h (1 Bft)
25.12.2015 21:00 24,2 C 8,5 C 53 % 88 % 1030,4 hPa 0,0 l/m 0,2 km/h (0 Bft) S-SW 0,00 h 0,0 UV-I 0 W/m 6,7 C 8,5 C 1,1 km/h (1 Bft)
25.12.2015 22:00 24,1 C 8,7 C 53 % 87 % 1030,1 hPa 0,0 l/m 2,5 km/h (1 Bft) S 0,00 h 0,0 UV-I 0 W/m 6,7 C 8,7 C 6,7 km/h (2 Bft)
25.12.2015 23:00 23,9 C 9,2 C 52 % 85 % 1030,1 hPa 0,0 l/m 5,7 km/h (1 Bft) S 0,00 h 0,0 UV-I 0 W/m 6,9 C 8,6 C 12,1 km/h (2 Bft)
26.12.2015 00:00 23,6 C 9,3 C 52 % 85 % 1030,2 hPa 0,0 l/m 4,7 km/h (1 Bft) S 0,00 h 0,0 UV-I 0 W/m 6,9 C 9,1 C 10,7 km/h (2 Bft)
26.12.2015 01:00 23,3 C 9,1 C 52 % 85 % 1030,0 hPa 0,0 l/m 0,5 km/h (0 Bft) S 0,00 h 0,0 UV-I 0 W/m 6,7 C 9,1 C 2,0 km/h (1 Bft)
26.12.2015 02:00 23,2 C 8,6 C 53 % 86 % 1030,0 hPa 0,0 l/m 0,1 km/h (0 Bft) O 0,00 h 0,0 UV-I 0 W/m 6,4 C 8,6 C 0,4 km/h (0 Bft)
26.12.2015 03:00 23,1 C 8,1 C 53 % 87 % 1030,1 hPa 0,0 l/m 1,0 km/h (0 Bft) SO 0,00 h 0,0 UV-I 0 W/m 6,1 C 8,1 C 3,1 km/h (1 Bft)
26.12.2015 04:00 23,1 C 7,4 C 54 % 88 % 1029,8 hPa 0,0 l/m 1,8 km/h (1 Bft) S-SO 0,00 h 0,0 UV-I 0 W/m 5,6 C 7,4 C 5,2 km/h (1 Bft)
26.12.2015 05:00 23,0 C 7,4 C 54 % 88 % 1029,6 hPa 0,0 l/m 1,1 km/h (1 Bft) S 0,00 h 0,0 UV-I 0 W/m 5,6 C 7,4 C 4,0 km/h (1 Bft)
26.12.2015 06:00 23,0 C 7,5 C 54 % 86 % 1029,8 hPa 0,0 l/m 0,5 km/h (0 Bft) S-SW 0,00 h 0,0 UV-I 0 W/m 5,4 C 7,5 C 2,2 km/h (1 Bft)
26.12.2015 07:00 23,0 C 6,8 C 54 % 88 % 1029,9 hPa 0,0 l/m 1,4 km/h (1 Bft) S 0,00 h 0,0 UV-I 0 W/m 5,0 C 6,8 C 5,0 km/h (1 Bft)
26.12.2015 08:00 22,9 C 6,4 C 54 % 89 % 1030,2 hPa 0,0 l/m 0,3 km/h (0 Bft) S-SO 0,00 h 0,0 UV-I 15 W/m 4,7 C 6,4 C 1,8 km/h (1 Bft)
26.12.2015 09:00 23,2 C 7,4 C 55 % 87 % 1030,5 hPa 0,0 l/m 2,2 km/h (1 Bft) S 0,00 h 0,0 UV-I 52 W/m 5,4 C 7,3 C 6,0 km/h (2 Bft)
26.12.2015 10:00 23,2 C 8,2 C 55 % 85 % 1030,6 hPa 0,0 l/m 3,4 km/h (1 Bft) S 0,00 h 0,6 UV-I 99 W/m 5,8 C 8,1 C 8,7 km/h (2 Bft)
26.12.2015 11:00 23,1 C 9,3 C 52 % 84 % 1030,2 hPa 0,0 l/m 5,9 km/h (2 Bft) S 0,00 h 0,6 UV-I 111 W/m 6,8 C 8,7 C 11,2 km/h (2 Bft)
26.12.2015 12:00 23,4 C 9,8 C 50 % 80 % 1029,3 hPa 0,0 l/m 4,2 km/h (1 Bft) S 0,55 h 0,7 UV-I 161 W/m 6,5 C 9,5 C 8,6 km/h (2 Bft)
26.12.2015 13:00 23,6 C 10,6 C 51 % 78 % 1028,6 hPa 0,0 l/m 5,3 km/h (1 Bft) S 0,77 h 0,6 UV-I 181 W/m 7,0 C 10,2 C 10,6 km/h (2 Bft)
26.12.2015 14:00 23,9 C 10,8 C 52 % 78 % 1028,4 hPa 0,0 l/m 5,2 km/h (1 Bft) S-SW 0,00 h 0,5 UV-I 97 W/m 7,2 C 10,5 C 11,1 km/h (2 Bft)
26.12.2015 15:00 23,9 C 10,2 C 51 % 80 % 1028,3 hPa 0,0 l/m 2,6 km/h (1 Bft) S 0,00 h 0,0 UV-I 37 W/m 6,9 C 10,2 C 6,0 km/h (2 Bft)
26.12.2015 16:00 24,1 C 9,2 C 50 % 83 % 1028,5 hPa 0,0 l/m 0,7 km/h (0 Bft) S-SO 0,00 h 0,0 UV-I 8 W/m 6,4 C 9,2 C 2,5 km/h (1 Bft)
26.12.2015 17:00 24,2 C 8,0 C 50 % 86 % 1028,5 hPa 0,0 l/m 0,3 km/h (0 Bft) SW 0,00 h 0,0 UV-I 0 W/m 5,7 C 8,0 C 2,2 km/h (1 Bft)
26.12.2015 18:00 24,1 C 7,2 C 51 % 88 % 1028,9 hPa 0,0 l/m 0,3 km/h (0 Bft) SW 0,00 h 0,0 UV-I 0 W/m 5,3 C 7,2 C 0,9 km/h (0 Bft)
26.12.2015 19:00 24,2 C 6,1 C 51 % 88 % 1029,3 hPa 0,0 l/m 0,0 km/h (0 Bft) N 0,00 h 0,0 UV-I 0 W/m 4,2 C 6,1 C 0,0 km/h (0 Bft)
26.12.2015 20:00 24,2 C 5,0 C 50 % 90 % 1029,6 hPa 0,0 l/m 0,0 km/h (0 Bft) N 0,00 h 0,0 UV-I 0 W/m 3,5 C 5,0 C 0,0 km/h (0 Bft)
26.12.2015 21:00 23,8 C 3,6 C 50 % 90 % 1029,4 hPa 0,0 l/m 0,0 km/h (0 Bft) N 0,00 h 0,0 UV-I 0 W/m 2,2 C 3,6 C 0,0 km/h (0 Bft)
26.12.2015 22:00 23,8 C 2,5 C 51 % 91 % 1029,3 hPa 0,0 l/m 0,0 km/h (0 Bft) N 0,00 h 0,0 UV-I 0 W/m 1,2 C 2,5 C 0,0 km/h (0 Bft)
26.12.2015 23:00 23,5 C 1,6 C 51 % 92 % 1029,6 hPa 0,0 l/m 0,0 km/h (0 Bft) N 0,00 h 0,0 UV-I 0 W/m 0,5 C 1,6 C 0,0 km/h (0 Bft)
27.12.2015 00:00 23,3 C 1,1 C 52 % 93 % 1029,7 hPa 0,0 l/m 0,0 km/h (0 Bft) N 0,00 h 0,0 UV-I 0 W/m 0,1 C 1,1 C 0,0 km/h (0 Bft)
27.12.2015 01:00 23,2 C 0,7 C 52 % 94 % 1029,6 hPa 0,0 l/m 0,0 km/h (0 Bft) N 0,00 h 0,0 UV-I 0 W/m -0,2 C 0,7 C 0,0 km/h (0 Bft)
27.12.2015 02:00 23,1 C 0,5 C 52 % 95 % 1029,9 hPa 0,0 l/m 0,0 km/h (0 Bft) N 0,00 h 0,0 UV-I 0 W/m -0,3 C 0,5 C 0,0 km/h (0 Bft)
27.12.2015 03:00 23,0 C 0,2 C 53 % 95 % 1029,7 hPa 0,0 l/m 0,0 km/h (0 Bft) N 0,00 h 0,0 UV-I 0 W/m -0,5 C 0,2 C 0,0 km/h (0 Bft)
27.12.2015 04:00 23,0 C -0,1 C 53 % 95 % 1029,7 hPa 0,0 l/m 0,0 km/h (0 Bft) N 0,00 h 0,0 UV-I 0 W/m -0,8 C -0,1 C 0,0 km/h (0 Bft)
27.12.2015 05:00 23,0 C -0,6 C 54 % 95 % 1029,9 hPa 0,0 l/m 0,0 km/h (0 Bft) N 0,00 h 0,0 UV-I 0 W/m -1,3 C -0,6 C 0,0 km/h (0 Bft)
27.12.2015 06:00 22,9 C -0,6 C 54 % 95 % 1030,0 hPa 0,0 l/m 0,0 km/h (0 Bft) N 0,00 h 0,0 UV-I 0 W/m -1,3 C -0,6 C 0,0 km/h (0 Bft)
27.12.2015 07:00 22,9 C -0,6 C 54 % 96 % 1030,5 hPa 0,0 l/m 0,0 km/h (0 Bft) N 0,00 h 0,0 UV-I 0 W/m -1,2 C -0,6 C 0,0 km/h (0 Bft)
27.12.2015 08:00 22,9 C -0,5 C 54 % 96 % 1030,9 hPa 0,0 l/m 0,0 km/h (0 Bft) N 0,00 h 0,0 UV-I 18 W/m -1,0 C -0,5 C 0,0 km/h (0 Bft)
27.12.2015 09:00 23,1 C 0,6 C 55 % 97 % 1031,1 hPa 0,0 l/m 0,0 km/h (0 Bft) N 0,00 h 0,0 UV-I 101 W/m 0,2 C 0,6 C 0,1 km/h (0 Bft)
27.12.2015 10:00 23,2 C 3,5 C 54 % 98 % 1031,4 hPa 0,0 l/m 0,6 km/h (0 Bft) N 0,13 h 0,5 UV-I 96 W/m 3,2 C 3,5 C 1,1 km/h (0 Bft)
27.12.2015 11:00 23,2 C 5,0 C 52 % 92 % 1031,5 hPa 0,0 l/m 1,7 km/h (1 Bft) S-SW 0,43 h 0,6 UV-I 139 W/m 3,9 C 5,0 C 4,6 km/h (1 Bft)
27.12.2015 12:00 23,3 C 5,8 C 52 % 89 % 1031,3 hPa 0,0 l/m 0,6 km/h (0 Bft) S 0,42 h 0,7 UV-I 145 W/m 4,2 C 5,8 C 1,4 km/h (1 Bft)
27.12.2015 13:00 23,6 C 7,7 C 50 % 83 % 1031,0 hPa 0,0 l/m 0,4 km/h (0 Bft) S 0,67 h 0,6 UV-I 169 W/m 4,9 C 7,7 C 1,6 km/h (1 Bft)
27.12.2015 14:00 23,7 C 8,0 C 49 % 80 % 1031,0 hPa 0,0 l/m 1,1 km/h (1 Bft) S 0,00 h 0,5 UV-I 81 W/m 4,7 C 8,0 C 3,8 km/h (1 Bft)
27.12.2015 15:00 23,7 C 7,3 C 51 % 82 % 1031,1 hPa 0,0 l/m 0,4 km/h (0 Bft) S 0,00 h 0,0 UV-I 26 W/m 4,4 C 7,3 C 1,5 km/h (1 Bft)
27.12.2015 16:00 23,8 C 6,7 C 52 % 85 % 1031,4 hPa 0,0 l/m 0,1 km/h (0 Bft) S 0,00 h 0,0 UV-I 7 W/m 4,3 C 6,7 C 0,4 km/h (0 Bft)
27.12.2015 17:00 23,7 C 6,1 C 52 % 86 % 1031,7 hPa 0,0 l/m 0,2 km/h (0 Bft) S 0,00 h 0,0 UV-I 0 W/m 3,9 C 6,1 C 0,6 km/h (0 Bft)
27.12.2015 18:00 23,7 C 6,0 C 51 % 87 % 1031,7 hPa 0,0 l/m 0,5 km/h (0 Bft) S-SW 0,00 h 0,0 UV-I 0 W/m 4,0 C 6,0 C 2,0 km/h (1 Bft)
27.12.2015 19:00 23,8 C 5,5 C 52 % 87 % 1032,4 hPa 0,0 l/m 0,0 km/h (0 Bft) N 0,00 h 0,0 UV-I 0 W/m 3,5 C 5,5 C 0,0 km/h (0 Bft)
27.12.2015 20:00 23,7 C 4,5 C 50 % 88 % 1033,0 hPa 0,0 l/m 0,0 km/h (0 Bft) N 0,00 h 0,0 UV-I 0 W/m 2,8 C 4,5 C 0,1 km/h (0 Bft)
27.12.2015 21:00 23,9 C 4,0 C 51 % 92 % 1032,9 hPa 0,0 l/m 0,4 km/h (0 Bft) S-SW 0,00 h 0,0 UV-I 0 W/m 2,9 C 4,0 C 2,1 km/h (1 Bft)
27.12.2015 22:00 23,8 C 4,5 C 51 % 91 % 1033,1 hPa 0,0 l/m 0,0 km/h (0 Bft) SW 0,00 h 0,0 UV-I 0 W/m 3,1 C 4,5 C 0,3 km/h (0 Bft)
27.12.2015 23:00 23,5 C 3,6 C 52 % 91 % 1033,2 hPa 0,0 l/m 0,0 km/h (0 Bft) N 0,00 h 0,0 UV-I 0 W/m 2,3 C 3,6 C 0,2 km/h (0 Bft)
Min-Datum _ 25.12.15 27.12.15 22.12.15 22.12.15 21.12.15 - 21.12.15 - - - - 27.12.15 21.12.15 21.12.15
_ Min-Zeit 10:36 05:56 22:18 21:16 00:18 - 00:00 - - - - 05:56 18:48 00:00
Minimum _ 22,5 C -0,7 C 44 % 76 % 1024,9 hPa - 0,0 km/h (0 Bft) - - - - -1,4 C -1,4 C 0,0 km/h (0 Bft)
Max-Datum _ 26.12.15 24.12.15 24.12.15 24.12.15 27.12.15 21.12.15 21.12.15 - 26.12.15 24.12.15 24.12.15 24.12.15 24.12.15 21.12.15
_ Max-Zeit 20:07 13:59 03:31 10:55 22:16 10:05 18:48 - 13:25 11:48 11:48 14:23 14:15 18:57
Maximum _ 24,4 C 10,9 C 57 % 99 % 1033,3 hPa 0,4 l/m 19,3 km/h
S (3 Bft)
- 0,03 h 0,8 UV-I 287 W/m 8,3 C 10,9 C 32,2 km/h
S (5 Bft)
Durchschnitt _ 23,2 C 6,4 C 51 % 90 % 1028,4 hPa #1,0 l/m 2,3 km/h (1 Bft) S #4:48 h 0,6 UV-I 60 W/m 4,9 C 6,1 C 5,0 km/h (1 Bft)